Location: Coupvray
(48.8929°N, 2.7967°E)
Time: 10:47:16
(UTC+00:00)

CZ-2D R/B - Pass Details

Date: 14 July 2020
Orbit: 792 x 845 km, 98.7° (Epoch: 05 August)

Event Time Altitude Azimuth Distance (km) Brightness Sun altitude
Rises 02:18:47 0° 10° (N) 3,345 6.6 -12.5°
Reaches altitude 10° 02:21:11 10° 4° (N) 2,417 5.6 -12.3°
Maximum altitude 02:26:15 45° 293° (WNW) 1,114 2.7 -11.8°
Enters shadow 02:30:27 15° 226° (SW) 2,105 3.6 -11.4°
